Location: Kitchener
(43.4500°N, 80.5000°W)
Time: 16:06:32
(UTC-04:00)

ATLAS 5 CENTAUR R/B - Visible Passes

Search period start: 28 May 2016 00:00
Search period end: 07 June 2016 00:00
Orbit: 669 x 992 km, 63.4° (Epoch: 24 April)

Date Brightness Start Highest point End Pass type
(mag) Time Alt. Az. Time Alt. Az. Time Alt. Az.
28 May 1.9 04:13:59 20° SSW 04:17:24 79° SE 04:22:41 10° NE visible
29 May 1.9 03:55:40 25° SSW 03:58:31 74° ESE 04:03:46 10° NE visible
30 May 2.0 03:37:19 31° SSW 03:39:37 70° ESE 03:44:52 10° NE visible
31 May 2.0 03:18:55 37° S 03:20:44 65° ESE 03:25:57 10° NE visible
31 May 3.6 05:01:49 10° W 05:05:56 25° NW 05:10:20 10° NNE visible
01 Jun 2.0 03:00:28 43° S 03:01:51 61° ESE 03:07:01 10° NE visible
01 Jun 3.6 04:42:48 10° W 04:46:59 26° NW 04:51:28 10° NNE visible
02 Jun 2.1 02:41:59 48° SSE 02:42:58 57° ESE 02:48:06 10° NE visible
02 Jun 3.5 04:23:47 10° W 04:28:02 27° NW 04:32:35 10° NNE visible
03 Jun 2.1 02:23:27 50° SSE 02:24:04 53° ESE 02:29:10 10° NE visible
03 Jun 3.5 04:04:59 11° W 04:09:06 28° NW 04:13:43 10° NNE visible
04 Jun 2.1 02:04:53 49° SE 02:05:12 50° ESE 02:10:14 10° NE visible
04 Jun 3.4 03:46:25 13° W 03:50:09 29° NW 03:54:50 10° NNE visible
05 Jun 2.3 01:46:16 46° ESE 01:46:19 46° ESE 01:51:18 10° NE visible
05 Jun 3.4 03:27:47 15° W 03:31:12 30° NW 03:35:57 10° NNE visible
06 Jun 2.4 01:27:36 43° ESE 01:27:36 43° ESE 01:32:21 10° NE visible
06 Jun 3.3 03:09:07 17° W 03:12:16 32° NW 03:17:04 10° NNE visible
06 Jun 4.6 04:57:07 10° NW 04:58:48 11° NNW 05:00:33 10° N visible
